Regional Weather Roundup
Issued by NWS State College, PA

Home | Current Version | Previous Version | Text Only | Print | Product List | Glossary Off
Versions: 1 2 3 4 5 6 7 8 9 10 11 12 13 14 15 16 17 18 19 20 21 22 23 24 25 26 27 28 29 30 31 32 33 34 35 36 37 38 39 40 41 42 43 44 45 46 47 48 49 50

000
ASUS41 KCTP 161610
RWRCTP

REGIONAL WEATHER ROUNDUP
NATIONAL WEATHER SERVICE STATE COLLEGE PA
1100 AM EST SAT DEC 16 2017

Note: "fair" indicates few or no clouds below 12,000 feet with no
significant weather and/or obstructions to visibility.

* = STATION THAT DOES NOT REPORT PRECIPITATION /E.G. RAIN...SNOW...ETC/
    THUNDER OR FOG.

PAZ002>004-007>009-013>016-020>023-029>032-161700-
WESTERN PENNSYLVANIA

CITY           SKY/WX    TMP DP  RH WIND       PRES   REMARKS
ERIE           LGT SNOW  31  28  89 SW10      29.97S VSB 3/4
MEADVILLE      FLURRIES  30  24  78 SW13      29.96S
FRANKLIN*      FLURRIES  30  24  78 SW10      29.97S
NEW CASTLE     CLOUDY    35  26  69 SW6       30.02S
BEAVER COUNTY  CLOUDY    34  25  69 SW14      30.01S
BUTLER*        CLOUDY    34  23  64 SW10      30.02S
PITTSBURGH INT CLOUDY    36  24  62 SW10      30.03R
PITTSBURGH     FLURRIES  33  22  63 SW12      30.03R
INDIANA*       MOSUNNY   32  25  74 W12       30.04F
LATROBE        CLOUDY    32  25  74 SW14G29   30.05S
WASHINGTON CO* CLOUDY    35  24  64 SW14      30.07S
$$

PAZ004>006-010>012-017>019-024>028-033>037-041-042-045-046-049>053-161700-
CENTRAL PENNSYLVANIA

CITY           SKY/WX    TMP DP  RH WIND       PRES   REMARKS
BRADFORD       LGT SNOW  28  25  88 W8G18     29.88S FOG
DUBOIS         LGT SNOW  28  23  81 W17G26    29.94S
CLEARFIELD     LGT SNOW  31  25  78 W16G23    29.96S
JOHNSTOWN      CLOUDY    30  21  69 SW16      29.96R
ALTOONA        MOSUNNY   37  24  59 W13       29.99S
STATE COLLEGE  CLOUDY    34  27  75 W17       29.98S
WILLIAMSPORT   CLOUDY    29  23  78 CALM      29.98F
SELINSGROVE    CLOUDY    33  22  63 S7        30.02F
FT INDIANTOWN  CLOUDY    32  20  61 W5        30.03F
CAPITAL CITY   PTSUNNY   38  22  52 SW9       30.05F
HARRISBURG     PTSUNNY   36  23  59 SW13      30.05F
YORK           SUNNY     37  24  59 SW14      30.05F
$$

PAZ038>040-043-044-047-048-054-055-060>062-067>071-161700-
EASTERN PENNSYLVANIA

CITY           SKY/WX    TMP DP  RH WIND       PRES   REMARKS
SCRANTON       CLOUDY    29  20  69 SW13      29.96F
MOUNT POCONO   CLOUDY    24  19  81 SW13      29.90F WCI  12
ALLENTOWN      CLOUDY    32  19  58 SW10      30.03F
QUAKERTOWN*    CLOUDY    32  19  59 SW9G18    30.05F
READING        CLOUDY    32  22  66 SW12      30.05F
LANCASTER      PTSUNNY   35  24  64 SW8       30.05F
COATESVILLE    CLOUDY    32  21  64 SW9       30.08F
POTTSTOWN      CLOUDY    32  20  61 SW7       30.08F
BLUE BELL      MOSUNNY   32  23  69 W7G16     30.09F
DOYLESTOWN     MOSUNNY   32  20  61 SW10G21   30.05F
WILLOW GROVE   NOT AVBL
NORTH PHILA    SUNNY     37  23  56 SW10G23   30.10F
PHILADELPHIA   MOSUNNY   34  25  69 W16       30.12F
$$



USA.gov is the U.S. government's official web portal to all federal, state and local government web resources and services.